Dean International
Flight School

Career Spotlight

Mika

Mika

Congratulations to Mika from Khazakstan. She recently sent us this photo of her flying an Airbus airliner.

More...
Mika's Success Story
close

Congratulations to Mika from Khazakstan. She recently sent us this photo of her flying an Airbus airliner.

Mario

Mario

My dreams could not have been realized if I wouldn't have been part of the Dean International family.

More...
Mario's Success Story
close

"My dreams could not have been realized if I wouldn't have been part of the Dean International family. Thank you Robert, thanks to all my co-workers, and thanks to all of my students!"

Fernando

Fernando

I am now working as a First Officer at TACA and am enjoying every moment of it.

More...
Fernando's Success Story
close

"Will never forget my time of flight training at Dean International. I am now working as a First Officer at TACA and am enjoying every moment of it."

Alvaro

Alvaro

Because of the flight time I was able to built while instructing, I got the experience needed to apply to an airline in Colombia.

More...
Alvaro's Success Story
close

Dean alumnus Alvaro Londoño currently flies with Tampa Cargo. He says of his experience at Dean: "I want to take this opportunity to thank you for giving me the chance to build my experience and expand my knowledge in Dean International. Because of the flight time I was able to built flight instructing, I got the experience needed to apply to an airline in Colombia."

Ralph

Ralph

Every Aruban student of Dean International has made it into Tiara Air Aruba, that is very nice.

More...
Ralph's Success Story
close

"Next to me is my Co-Pilot, Elison. This picture was taken on our first flight together, which was almost exactly 5 years after I finished at Dean International. [...] Every Aruban student of Dean International has made it into Tiara Air Aruba. [...] The future looks bright here in Aruba."

Rohaan

Rohaan

The [..] staff will all work diligently to help you finish your certificates as safely and efficiently as possible.

More...
Rohaan's Success Story
close

After receiving very hard times from other flight schools [...], I came to Dean International where Robert Dean personally sat down with me and gave me a financial and chronological look into how much remained to finish my private pilot certificate. Through his hard efforts as an instructor and mentor, I was able to finish my private pilot certificate within one week.

Welcome to Dean International

In over two decades, Dean International has educated over 7,000 pilots from all over the world, including over 1,000 students from India alone. By offering a great training experience, a friendly service staff, an ample variety of aircraft, and by improving constantly, we have become one of the largest, most prestigious FAA 141-approved flight schools in North America. Located in Miami, Florida, USA, our flight school offers an ideal location for year-round, "learn to fly" weather, flight training. Dean International is not only well-equipped to provide services to professional trainees but also caters to General Aviation renters. Visit or contact our headquarters at Kendall-Tamiami Executive Airport located in Miami, FL today to learn more about us, or simply read more about our programs if you are an international student interested in joining our school.

Local Airport Information
TAF FOR KTMB (Issued: Thu, March 26th 2015 9:36 PM UTC)
TAF
      AMD KTMB 262034Z 2621/2718 17013G21KT P6SM FEW040
      FM270100 16003KT P6SM BKN250
     
METAR FOR KTMB (Issued: Fri, March 27th 2015 12:53 AM UTC):
KTMB 270053Z 17006KT 10SM CLR 26/21 A2995 RMK AO2 SLP140 T02610211

This weather information is provided by the National Weather Service.
It is automatically refreshed every three minutes.
TAF FOR KHST (Issued: Fri, March 27th 2015 12:06 AM UTC)
TAF TAF KHST 2700/2806 16012KT 9999 SCT030 QNH2998INS
      BECMG 2714/2715 19012G20KT 9999 FEW040 SCT060 QNH2993INS
      BECMG 2717/2718 21015G25KT 9999 VCTS SCT030 BKN040CB QNH2990INS
      BECMG 2802/2803 29009KT 9999 NSW BKN100 OVC120 QNH3000INS TX29/2718Z TN16/2712Z
     
METAR FOR KHST (Issued: Fri, March 27th 2015 12:58 AM UTC):
KHST 270058Z AUTO 16004KT 10SM CLR 24/22 A2995 RMK AO2 DZB01E10DZB28E37 SLP145 P0000 T02440218

This weather information is provided by the National Weather Service.
It is automatically refreshed every three minutes.
TAF FOR KOPF (Issued: Thu, March 26th 2015 9:36 PM UTC)
TAF
      AMD KOPF 262034Z 2621/2718 17017G25KT P6SM SCT030 SCT120
      FM270100 17006KT P6SM SCT250
     
METAR FOR KOPF (Issued: Fri, March 27th 2015 12:53 AM UTC):
KOPF 270053Z 19012KT 10SM CLR 27/21 A2995 RMK AO2 SLP143 T02670206

This weather information is provided by the National Weather Service.
It is automatically refreshed every three minutes.
TAF FOR KMIA (Issued: Thu, March 26th 2015 9:39 PM UTC)
TAF
      AMD KMIA 262034Z 2621/2718 16017G24KT P6SM SCT030
      FM270000 17006KT P6SM BKN250
     
METAR FOR KMIA (Issued: Fri, March 27th 2015 12:53 AM UTC):
KMIA 270053Z 16006KT 10SM FEW025 26/21 A2995 RMK AO2 SLP142 T02610206

This weather information is provided by the National Weather Service.
It is automatically refreshed every three minutes.
Design by Ariel Llizo
© Dean International Inc. 2012